{"data":{"norad_id":61729,"intl_designator":"2024-196Y","name":"STARLINK-32442","alt_names":[],"object_type":"PAYLOAD","status":"ACTIVE","operator":null,"country":"US","launch_date":"2024-10-30","launch_site_code":"AFETR","launch_vehicle":null,"mission":null,"orbit_class":"UNKNOWN","rcs_meters":null,"size_class":null,"mass_kg":null,"dimensions":null,"purposes":["comms"],"wikipedia_slug":null,"has_3d_model":false,"image_url":null,"decayed_at":null,"tle_current":{"epoch":"2026-09-21T17:46:14.716704Z","epoch_age_seconds":81396,"freshness":"FRESH","line1":"1 61729U 24196Y   26264.74044811  .00000269  00000+0  19115-4 0  9993","line2":"2 61729  53.1603 267.8087 0001325  85.7573 274.3581 15.34391352107216","mean_motion":15.34391352,"eccentricity":0.0001325,"inclination_deg":53.1603,"raan_deg":267.8087,"arg_perigee_deg":85.7573,"mean_anomaly_deg":274.3581,"bstar":1.9115e-5,"rev_number":10721,"period_min":93.848287017718,"perigee_km":461.82252926873,"apogee_km":463.63535874389,"semimajor_km":6840.8659440063,"source":"CELESTRAK","updated_at":"2026-09-22T09:00:49.439284Z"}}}